Cambridge, MN

3:26 PM CDT on September 23, 2017 (GMT -0500)
Cambridge Municipal

Weather History for KCBG - September, 2013

Change the Weather History Date:

Friday, September 27, 2013

  Actual Average Record
Temperature  
Mean Temperature 75 °F -  
Max Temperature 82 °F 64 °F 86 °F (1987)
Min Temperature 68 °F 41 °F 26 °F (1991)
Cooling Degree Days 10    
Growing Degree Days 25 (Base 50)    
Moisture  
Dew Point 60 °F    
Average Humidity 61    
Maximum Humidity 69    
Minimum Humidity 51    
Precipitation  
Precipitation 0.00 in - - ()
Sea Level Pressure  
Sea Level Pressure 29.85 in    
Wind  
Wind Speed 9 mph (SE)    
Max Wind Speed 16 mph    
Max Gust Speed 26 mph    
Visibility 10 miles    
Events Rain    
Averages and records for this station are not official NWS values.
T = Trace of Precipitation, MM = Missing Value Source: NWS Daily Summary

Daily Weather History Graph

Daily Weather History Graph

Search for Another Location

Airport or City:

Trip Planner

Search our weather history database for the weather conditions in past years. The results will help you decide how hot, cold, wet, or windy it might be!

Date:

Astronomy

Sep. 27, 2013 Rise Set
Actual Time 7:06 AM CDT 7:00 PM CDT
Civil Twilight 6:37 AM CDT 7:29 PM CDT
Nautical Twilight 6:02 AM CDT 8:04 PM CDT
Astronomical Twilight 5:27 AM CDT 8:39 PM CDT
Moon No Moon Rise 2:54 PM CDT (9/27)
Length of Visible Light 12h 52m
Length of Day
11h 53m
Last Quarter, 45% of the Moon is Illuminated
Sep 27
Last Quarter
Oct 4
New
Oct 11
First Quarter
Oct 18
Full
Oct 26
Last Quarter

Hourly Weather History & Observations

Time (CDT) Temp. Heat Index Dew Point Humidity Pressure Visibility Wind Dir Wind Speed Gust Speed Precip Events Conditions
12:15 AM 69.8 °F - 57.2 °F 64% 29.90 in 10.0 mi SE 6.9 mph - N/A   Clear
12:35 AM 69.8 °F - 57.2 °F 64% 29.90 in 10.0 mi SSE 5.8 mph - N/A   Clear
12:56 AM 68.0 °F - 57.2 °F 68% 29.90 in 10.0 mi ESE 4.6 mph - N/A   Clear
1:15 AM 68.0 °F - 57.2 °F 68% 29.90 in 10.0 mi ESE 5.8 mph - N/A   Clear
1:35 AM 68.0 °F - 57.2 °F 68% 29.90 in 10.0 mi SE 5.8 mph - N/A   Clear
1:55 AM 69.8 °F - 57.2 °F 64% 29.90 in 10.0 mi SE 8.1 mph - N/A   Clear
2:15 AM 69.8 °F - 57.2 °F 64% 29.90 in 10.0 mi SE 6.9 mph - N/A   Clear
2:36 AM 69.8 °F - 57.2 °F 64% 29.90 in 10.0 mi SE 8.1 mph - N/A   Clear
2:55 AM 69.8 °F - 57.2 °F 64% 29.89 in 10.0 mi SE 8.1 mph - N/A   Clear
3:16 AM 69.8 °F - 57.2 °F 64% 29.89 in 10.0 mi SE 8.1 mph - N/A   Clear
3:35 AM 69.8 °F - 57.2 °F 64% 29.89 in 10.0 mi SE 8.1 mph - N/A   Clear
3:55 AM 69.8 °F - 57.2 °F 64% 29.89 in 10.0 mi SE 6.9 mph - N/A   Clear
4:16 AM 69.8 °F - 57.2 °F 64% 29.89 in 10.0 mi SE 9.2 mph - N/A   Clear
4:35 AM 68.0 °F - 57.2 °F 68% 29.89 in 10.0 mi SE 8.1 mph - N/A   Clear
4:55 AM 68.0 °F - 57.2 °F 68% 29.88 in 10.0 mi SE 8.1 mph - N/A   Clear
5:15 AM 68.0 °F - 55.4 °F 64% 29.88 in 10.0 mi SE 9.2 mph - N/A   Clear
5:36 AM 68.0 °F - 55.4 °F 64% 29.88 in 10.0 mi SE 8.1 mph - N/A   Clear
5:55 AM 68.0 °F - 55.4 °F 64% 29.88 in 10.0 mi SE 10.4 mph - N/A   Clear
6:16 AM 68.0 °F - 55.4 °F 64% 29.88 in 10.0 mi SE 9.2 mph 17.3 mph N/A   Clear
6:35 AM 68.0 °F - 55.4 °F 64% 29.89 in 10.0 mi SE 8.1 mph - N/A   Clear
6:56 AM 68.0 °F - 55.4 °F 64% 29.89 in 10.0 mi SE 9.2 mph - N/A   Clear
7:15 AM 68.0 °F - 55.4 °F 64% 29.90 in 10.0 mi SSE 8.1 mph - N/A   Clear
7:35 AM 68.0 °F - 55.4 °F 64% 29.89 in 10.0 mi SE 9.2 mph 16.1 mph N/A   Scattered Clouds
7:55 AM 69.8 °F - 55.4 °F 60% 29.90 in 10.0 mi SSE 11.5 mph - N/A   Mostly Cloudy
8:15 AM 68.0 °F - 57.2 °F 68% 29.90 in 10.0 mi SSE 10.4 mph - N/A Rain Light Rain
8:35 AM 68.0 °F - 57.2 °F 68% 29.90 in 10.0 mi SE 8.1 mph - N/A   Mostly Cloudy
8:55 AM 68.0 °F - 57.2 °F 68% 29.89 in 10.0 mi SE 8.1 mph - N/A Rain Light Rain
9:15 AM 69.8 °F - 57.2 °F 64% 29.90 in 10.0 mi SE 5.8 mph - N/A   Scattered Clouds
9:35 AM 69.8 °F - 57.2 °F 64% 29.90 in 10.0 mi SE 9.2 mph - N/A   Clear
9:56 AM 69.8 °F - 57.2 °F 64% 29.90 in 10.0 mi SSE 10.4 mph - N/A Rain Light Rain
10:15 AM 71.6 °F - 57.2 °F 60% 29.90 in 10.0 mi SSE 10.4 mph 16.1 mph N/A   Scattered Clouds
10:36 AM 71.6 °F - 57.2 °F 60% 29.89 in 10.0 mi SSE 11.5 mph 18.4 mph N/A   Clear
10:55 AM 71.6 °F - 59.0 °F 64% 29.89 in 10.0 mi SSE 13.8 mph 21.9 mph N/A Rain Light Rain
11:15 AM 71.6 °F - 59.0 °F 64% 29.88 in 10.0 mi SSE 10.4 mph 17.3 mph N/A Rain Light Rain
11:35 AM 71.6 °F - 59.0 °F 64% 29.88 in 10.0 mi SSE 5.8 mph - N/A   Light Drizzle
11:55 AM 71.6 °F - 60.8 °F 69% 29.88 in 10.0 mi SE 9.2 mph - N/A   Clear
12:16 PM 71.6 °F - 59.0 °F 64% 29.87 in 10.0 mi SE 9.2 mph - N/A Rain Light Rain
12:35 PM 71.6 °F - 60.8 °F 69% 29.86 in 10.0 mi SE 6.9 mph - N/A Rain Light Rain
12:56 PM 71.6 °F - 60.8 °F 69% 29.85 in 10.0 mi SE 4.6 mph - N/A   Light Drizzle
1:15 PM 73.4 °F - 60.8 °F 65% 29.84 in 10.0 mi SE 6.9 mph - N/A   Clear
1:35 PM 73.4 °F - 60.8 °F 65% 29.83 in 10.0 mi SE 8.1 mph - N/A   Clear
1:55 PM 75.2 °F - 62.6 °F 65% 29.81 in 10.0 mi SE 5.8 mph - N/A Rain Light Rain
2:15 PM 78.8 °F - 62.6 °F 57% 29.80 in 10.0 mi SE 10.4 mph 16.1 mph N/A   Clear
2:35 PM 78.8 °F - 62.6 °F 57% 29.80 in 10.0 mi SSE 10.4 mph 23.0 mph N/A   Clear
2:55 PM 80.6 °F 81.8 °F 62.6 °F 54% 29.79 in 10.0 mi SE 15.0 mph 24.2 mph N/A   Clear
3:16 PM 82.4 °F 83.9 °F 64.4 °F 54% 29.79 in 10.0 mi SSE 13.8 mph 24.2 mph N/A   Clear
3:35 PM 82.4 °F 83.9 °F 64.4 °F 54% 29.79 in 10.0 mi SSE 12.7 mph 23.0 mph N/A   Clear
3:55 PM 82.4 °F 83.9 °F 64.4 °F 54% 29.79 in 10.0 mi SSE 12.7 mph 25.3 mph N/A   Clear
4:15 PM 82.4 °F 83.4 °F 62.6 °F 51% 29.79 in 10.0 mi SSE 16.1 mph 26.5 mph N/A   Clear
4:35 PM 82.4 °F 83.9 °F 64.4 °F 54% 29.80 in 10.0 mi SSE 16.1 mph 24.2 mph N/A   Clear
4:56 PM 82.4 °F 83.4 °F 62.6 °F 51% 29.80 in 10.0 mi SSE 16.1 mph 21.9 mph N/A   Clear
5:15 PM 82.4 °F 83.9 °F 64.4 °F 54% 29.80 in 10.0 mi SSE 10.4 mph 18.4 mph N/A   Clear
5:36 PM 82.4 °F 83.4 °F 62.6 °F 51% 29.80 in 10.0 mi SSE 9.2 mph 16.1 mph N/A   Clear
5:55 PM 80.6 °F 81.8 °F 62.6 °F 54% 29.81 in 10.0 mi SSE 10.4 mph - N/A   Clear
6:15 PM 80.6 °F 81.8 °F 62.6 °F 54% 29.80 in 10.0 mi SE 10.4 mph 21.9 mph N/A   Clear
6:35 PM 80.6 °F 81.8 °F 62.6 °F 54% 29.81 in 10.0 mi SE 11.5 mph - N/A   Clear
6:55 PM 78.8 °F - 62.6 °F 57% 29.81 in 10.0 mi SE 8.1 mph - N/A   Clear
7:15 PM 78.8 °F - 62.6 °F 57% 29.81 in 10.0 mi SE 9.2 mph - N/A   Clear
7:35 PM 78.8 °F - 62.6 °F 57% 29.81 in 10.0 mi SE 9.2 mph - N/A   Clear
7:55 PM 78.8 °F - 62.6 °F 57% 29.81 in 10.0 mi SE 8.1 mph - N/A   Clear
8:15 PM 78.8 °F - 62.6 °F 57% 29.81 in 10.0 mi SE 10.4 mph 16.1 mph N/A   Clear
8:35 PM 78.8 °F - 62.6 °F 57% 29.81 in 10.0 mi SE 8.1 mph - N/A   Clear
8:55 PM 77.0 °F - 62.6 °F 61% 29.81 in 10.0 mi SE 10.4 mph - N/A   Clear
9:16 PM 77.0 °F - 62.6 °F 61% 29.82 in 10.0 mi SE 10.4 mph - N/A   Clear
9:35 PM 77.0 °F - 60.8 °F 57% 29.82 in 10.0 mi SE 13.8 mph 18.4 mph N/A   Clear
9:55 PM 77.0 °F - 60.8 °F 57% 29.82 in 10.0 mi SE 10.4 mph 17.3 mph N/A   Clear
10:15 PM 77.0 °F - 60.8 °F 57% 29.82 in 10.0 mi SE 11.5 mph 16.1 mph N/A   Clear
10:35 PM 77.0 °F - 60.8 °F 57% 29.81 in 10.0 mi SSE 10.4 mph - N/A   Clear
10:56 PM 77.0 °F - 60.8 °F 57% 29.81 in 10.0 mi SE 9.2 mph 16.1 mph N/A   Clear
11:15 PM 77.0 °F - 60.8 °F 57% 29.81 in 10.0 mi SSE 10.4 mph 17.3 mph N/A   Clear
11:36 PM 75.2 °F - 60.8 °F 61% 29.81 in 10.0 mi SSE 10.4 mph 17.3 mph N/A   Clear
11:55 PM 75.2 °F - 60.8 °F 61% 29.80 in 10.0 mi SSE 12.7 mph 19.6 mph N/A   Clear